Time,TemperatureF,DewpointF,PressureIn,WindDirection,WindDirectionDegrees,WindSpeedMPH,WindSpeedGustMPH,Humidity,HourlyPrecipIn,Conditions,Clouds,dailyrainin,SoftwareType,DateUTC
2013-01-24 00:03:00,33.6,12.4,17.72,WSW,246,0.0,0.0,41,0.00,,---,0.00,VWS V14.00,2013-01-24 07:03:00,
2013-01-24 00:08:00,33.6,12.4,17.72,WSW,246,0.0,0.0,41,0.00,,---,0.00,VWS V14.00,2013-01-24 07:08:00,
2013-01-24 00:13:00,33.6,12.4,17.72,WSW,246,0.0,0.0,41,0.00,,---,0.00,VWS V14.00,2013-01-24 07:13:00,
2013-01-24 00:18:00,33.6,12.4,17.72,WSW,246,0.0,0.0,41,0.00,,---,0.00,VWS V14.00,2013-01-24 07:18:00,
2013-01-24 00:23:00,33.6,12.4,17.72,WSW,246,0.0,0.0,41,0.00,,---,0.00,VWS V14.00,2013-01-24 07:23:00,
2013-01-24 00:28:00,33.6,12.4,17.72,WSW,246,0.0,0.0,41,0.00,,---,0.00,VWS V14.00,2013-01-24 07:28:00,
2013-01-24 00:33:00,33.6,12.4,17.72,WSW,246,0.0,0.0,41,0.00,,---,0.00,VWS V14.00,2013-01-24 07:33:00,
2013-01-24 00:39:00,33.6,12.4,17.72,WSW,246,0.0,0.0,41,0.00,,---,0.00,VWS V14.00,2013-01-24 07:39:00,
2013-01-24 00:44:00,33.4,12.3,17.72,WSW,246,0.0,0.0,41,0.00,,---,0.00,VWS V14.00,2013-01-24 07:44:00,
2013-01-24 00:49:00,33.4,12.3,17.72,WSW,246,0.0,0.0,41,0.00,,---,0.00,VWS V14.00,2013-01-24 07:49:00,
2013-01-24 00:54:00,33.4,12.3,17.72,WSW,246,0.0,0.0,41,0.00,,---,0.00,VWS V14.00,2013-01-24 07:54:00,
2013-01-24 00:59:00,33.4,12.3,17.72,WSW,246,0.0,0.0,41,0.00,,---,0.00,VWS V14.00,2013-01-24 07:59:00,
2013-01-24 01:04:00,33.4,12.3,17.72,WSW,246,0.0,0.0,41,0.00,,---,0.00,VWS V14.00,2013-01-24 08:04:00,
2013-01-24 01:09:00,33.4,12.3,17.72,WSW,246,0.0,0.0,41,0.00,,---,0.00,VWS V14.00,2013-01-24 08:09:00,
2013-01-24 01:15:00,33.6,12.4,17.72,WSW,246,0.0,0.0,41,0.00,,---,0.00,VWS V14.00,2013-01-24 08:15:00,
2013-01-24 01:20:00,33.6,12.4,17.72,WSW,246,0.0,0.0,41,0.00,,---,0.00,VWS V14.00,2013-01-24 08:20:00,
2013-01-24 01:25:00,33.6,12.4,17.72,WSW,246,0.0,0.0,41,0.00,,---,0.00,VWS V14.00,2013-01-24 08:25:00,
2013-01-24 01:30:00,33.4,12.3,17.72,WSW,246,0.0,0.0,41,0.00,,---,0.00,VWS V14.00,2013-01-24 08:30:00,
2013-01-24 01:35:00,33.4,12.3,17.72,WSW,246,0.0,0.0,41,0.00,,---,0.00,VWS V14.00,2013-01-24 08:35:00,
2013-01-24 01:40:00,33.4,12.3,17.72,WSW,246,0.0,0.0,41,0.00,,---,0.00,VWS V14.00,2013-01-24 08:40:00,
2013-01-24 01:45:00,33.4,12.3,17.72,WSW,246,0.0,0.0,41,0.00,,---,0.00,VWS V14.00,2013-01-24 08:45:00,
2013-01-24 01:50:00,33.4,12.3,17.72,WSW,246,0.0,0.0,41,0.00,,---,0.00,VWS V14.00,2013-01-24 08:50:00,
2013-01-24 01:55:00,33.4,12.3,17.72,WSW,246,0.0,0.0,41,0.00,,---,0.00,VWS V14.00,2013-01-24 08:55:00,
2013-01-24 02:00:00,33.4,12.3,17.72,WSW,246,0.0,0.0,41,0.00,,---,0.00,VWS V14.00,2013-01-24 09:00:00,
2013-01-24 02:05:00,33.4,12.3,17.72,WSW,246,0.0,0.0,41,0.00,,---,0.00,VWS V14.00,2013-01-24 09:05:00,
2013-01-24 02:10:00,33.4,12.3,17.72,WSW,246,0.0,0.0,41,0.00,,---,0.00,VWS V14.00,2013-01-24 09:10:00,
2013-01-24 02:15:00,33.4,12.3,17.72,WSW,246,0.0,0.0,41,0.00,,---,0.00,VWS V14.00,2013-01-24 09:15:00,
2013-01-24 02:20:00,33.4,12.3,17.72,WSW,246,0.0,0.0,41,0.00,,---,0.00,VWS V14.00,2013-01-24 09:20:00,
2013-01-24 02:25:00,33.4,12.3,17.72,WSW,246,0.0,0.0,41,0.00,,---,0.00,VWS V14.00,2013-01-24 09:25:00,
2013-01-24 02:30:00,33.4,12.3,17.72,WSW,246,0.0,0.0,41,0.00,,---,0.00,VWS V14.00,2013-01-24 09:30:00,
2013-01-24 02:35:00,33.4,12.3,17.72,WSW,246,0.0,0.0,41,0.00,,---,0.00,VWS V14.00,2013-01-24 09:35:00,
2013-01-24 02:40:00,33.4,12.3,17.72,WSW,246,0.0,0.0,41,0.00,,---,0.00,VWS V14.00,2013-01-24 09:40:00,
2013-01-24 02:45:00,33.4,12.3,17.72,WSW,246,0.0,0.0,41,0.00,,---,0.00,VWS V14.00,2013-01-24 09:45:00,
2013-01-24 02:50:00,33.3,12.1,17.72,WSW,246,0.0,0.0,41,0.00,,---,0.00,VWS V14.00,2013-01-24 09:50:00,
2013-01-24 02:55:00,33.3,12.1,17.72,WSW,246,0.0,0.0,41,0.00,,---,0.00,VWS V14.00,2013-01-24 09:55:00,
2013-01-24 03:00:00,33.3,12.1,17.72,WSW,246,0.0,0.0,41,0.00,,---,0.00,VWS V14.00,2013-01-24 10:00:00,
2013-01-24 03:06:00,33.3,12.1,17.72,WSW,246,0.0,0.0,41,0.00,,---,0.00,VWS V14.00,2013-01-24 10:06:00,
2013-01-24 03:11:00,33.3,12.1,17.72,WSW,246,0.0,0.0,41,0.00,,---,0.00,VWS V14.00,2013-01-24 10:11:00,
2013-01-24 03:16:00,33.3,12.1,17.72,WSW,246,0.0,0.0,41,0.00,,---,0.00,VWS V14.00,2013-01-24 10:16:00,
2013-01-24 03:21:00,33.3,12.1,17.72,WSW,246,0.0,0.0,41,0.00,,---,0.00,VWS V14.00,2013-01-24 10:21:00,
2013-01-24 03:26:00,33.3,12.1,17.72,WSW,246,0.0,0.0,41,0.00,,---,0.00,VWS V14.00,2013-01-24 10:26:00,
2013-01-24 03:31:00,33.3,12.1,17.72,WSW,246,0.0,0.0,41,0.00,,---,0.00,VWS V14.00,2013-01-24 10:31:00,
2013-01-24 03:36:00,33.3,12.1,17.72,WSW,246,0.0,0.0,41,0.00,,---,0.00,VWS V14.00,2013-01-24 10:36:00,
2013-01-24 03:41:00,33.3,12.1,17.72,WSW,246,0.0,0.0,41,0.00,,---,0.00,VWS V14.00,2013-01-24 10:41:00,
2013-01-24 03:46:00,33.3,12.1,17.72,WSW,246,0.0,0.0,41,0.00,,---,0.00,VWS V14.00,2013-01-24 10:46:00,
2013-01-24 03:52:00,33.3,12.1,17.72,WSW,246,0.0,0.0,41,0.00,,---,0.00,VWS V14.00,2013-01-24 10:52:00,
2013-01-24 03:57:00,33.1,12.0,17.72,WSW,246,0.0,0.0,41,0.00,,---,0.00,VWS V14.00,2013-01-24 10:57:00,
2013-01-24 04:02:00,33.1,12.0,17.72,WSW,246,0.0,0.0,41,0.00,,---,0.00,VWS V14.00,2013-01-24 11:02:00,
2013-01-24 04:07:00,33.1,12.0,17.72,WSW,246,0.0,0.0,41,0.00,,---,0.00,VWS V14.00,2013-01-24 11:07:00,
2013-01-24 04:12:00,33.1,12.0,17.72,WSW,246,0.0,0.0,41,0.00,,---,0.00,VWS V14.00,2013-01-24 11:12:00,
2013-01-24 04:17:00,33.1,12.0,17.72,WSW,246,0.0,0.0,41,0.00,,---,0.00,VWS V14.00,2013-01-24 11:17:00,
2013-01-24 04:22:00,33.1,12.0,17.72,WSW,246,0.0,0.0,41,0.00,,---,0.00,VWS V14.00,2013-01-24 11:22:00,
2013-01-24 04:27:00,33.1,12.0,17.72,WSW,246,0.0,0.0,41,0.00,,---,0.00,VWS V14.00,2013-01-24 11:27:00,
2013-01-24 04:32:00,33.1,12.0,17.72,WSW,246,0.0,0.0,41,0.00,,---,0.00,VWS V14.00,2013-01-24 11:32:00,
2013-01-24 04:37:00,33.1,12.0,17.72,WSW,246,0.0,0.0,41,0.00,,---,0.00,VWS V14.00,2013-01-24 11:37:00,
2013-01-24 04:42:00,33.1,12.0,17.72,WSW,246,0.0,0.0,41,0.00,,---,0.00,VWS V14.00,2013-01-24 11:42:00,
2013-01-24 04:47:00,32.9,11.8,17.72,WSW,246,0.0,0.0,41,0.00,,---,0.00,VWS V14.00,2013-01-24 11:47:00,
2013-01-24 04:52:00,32.7,11.6,17.72,WSW,246,0.0,0.0,41,0.00,,---,0.00,VWS V14.00,2013-01-24 11:52:00,
2013-01-24 04:57:00,32.4,11.3,17.72,WSW,246,0.0,0.0,41,0.00,,---,0.00,VWS V14.00,2013-01-24 11:57:00,
2013-01-24 05:02:00,32.2,11.1,17.72,WSW,246,0.0,0.0,41,0.00,,---,0.00,VWS V14.00,2013-01-24 12:02:00,
2013-01-24 05:07:00,31.8,10.8,17.72,WSW,246,0.0,0.0,41,0.00,,---,0.00,VWS V14.00,2013-01-24 12:07:00,
2013-01-24 05:12:00,31.6,10.6,17.72,WSW,246,0.0,0.0,41,0.00,,---,0.00,VWS V14.00,2013-01-24 12:12:00,
2013-01-24 05:17:00,31.5,10.5,17.72,WSW,246,0.0,0.0,41,0.00,,---,0.00,VWS V14.00,2013-01-24 12:17:00,
2013-01-24 05:22:00,31.3,10.3,17.72,WSW,246,0.0,0.0,41,0.00,,---,0.00,VWS V14.00,2013-01-24 12:22:00,
2013-01-24 05:27:00,31.1,10.2,17.72,WSW,246,0.0,0.0,41,0.00,,---,0.00,VWS V14.00,2013-01-24 12:27:00,
2013-01-24 05:32:00,30.9,10.0,17.72,WSW,246,0.0,0.0,41,0.00,,---,0.00,VWS V14.00,2013-01-24 12:32:00,
2013-01-24 05:37:00,30.7,9.8,17.72,WSW,246,0.0,0.0,41,0.00,,---,0.00,VWS V14.00,2013-01-24 12:37:00,
2013-01-24 05:42:00,30.7,9.8,17.72,WSW,246,0.0,0.0,41,0.00,,---,0.00,VWS V14.00,2013-01-24 12:42:00,
2013-01-24 05:47:00,30.6,9.7,17.72,WSW,246,0.0,0.0,41,0.00,,---,0.00,VWS V14.00,2013-01-24 12:47:00,
2013-01-24 05:52:00,30.4,9.5,17.72,WSW,246,0.0,0.0,41,0.00,,---,0.00,VWS V14.00,2013-01-24 12:52:00,
2013-01-24 05:57:00,30.4,9.5,17.72,WSW,246,0.0,0.0,41,0.00,,---,0.00,VWS V14.00,2013-01-24 12:57:00,
2013-01-24 06:02:00,30.4,9.5,17.72,WSW,246,0.0,0.0,41,0.00,,---,0.00,VWS V14.00,2013-01-24 13:02:00,
2013-01-24 06:07:00,30.4,9.5,17.72,WSW,246,0.0,0.0,41,0.00,,---,0.00,VWS V14.00,2013-01-24 13:07:00,
2013-01-24 06:12:00,30.2,9.4,17.72,WSW,246,0.0,0.0,41,0.00,,---,0.00,VWS V14.00,2013-01-24 13:12:00,
2013-01-24 06:17:00,30.2,9.4,17.72,WSW,246,0.0,0.0,41,0.00,,---,0.00,VWS V14.00,2013-01-24 13:17:00,
2013-01-24 06:22:00,30.2,9.4,17.72,WSW,246,0.0,0.0,41,0.00,,---,0.00,VWS V14.00,2013-01-24 13:22:00,
2013-01-24 06:27:00,30.4,9.5,17.72,WSW,246,0.0,0.0,41,0.00,,---,0.00,VWS V14.00,2013-01-24 13:27:00,
2013-01-24 06:32:00,30.4,9.5,17.72,WSW,246,0.0,0.0,41,0.00,,---,0.00,VWS V14.00,2013-01-24 13:32:00,
2013-01-24 06:37:00,30.4,9.5,17.72,WSW,246,0.0,0.0,41,0.00,,---,0.00,VWS V14.00,2013-01-24 13:37:00,
2013-01-24 06:42:00,30.4,9.5,17.72,WSW,246,0.0,0.0,41,0.00,,---,0.00,VWS V14.00,2013-01-24 13:42:00,
2013-01-24 06:47:00,30.6,9.7,17.72,WSW,246,0.0,0.0,41,0.00,,---,0.00,VWS V14.00,2013-01-24 13:47:00,
2013-01-24 06:52:00,30.4,9.5,17.72,WSW,246,0.0,0.0,41,0.00,,---,0.00,VWS V14.00,2013-01-24 13:52:00,
2013-01-24 06:57:00,30.6,9.7,17.72,WSW,246,0.0,0.0,41,0.00,,---,0.00,VWS V14.00,2013-01-24 13:57:00,
2013-01-24 07:02:00,30.4,9.5,17.72,WSW,246,0.0,0.0,41,0.00,,---,0.00,VWS V14.00,2013-01-24 14:02:00,
2013-01-24 07:07:00,30.4,9.5,17.72,WSW,246,0.0,0.0,41,0.00,,---,0.00,VWS V14.00,2013-01-24 14:07:00,
2013-01-24 07:12:00,30.4,9.5,17.72,WSW,246,0.0,0.0,41,0.00,,---,0.00,VWS V14.00,2013-01-24 14:12:00,
2013-01-24 07:17:00,30.4,9.5,17.72,WSW,246,0.0,0.0,41,0.00,,---,0.00,VWS V14.00,2013-01-24 14:17:00,
2013-01-24 07:22:00,30.4,9.5,17.72,WSW,246,0.0,0.0,41,0.00,,---,0.00,VWS V14.00,2013-01-24 14:22:00,
2013-01-24 07:27:00,30.4,9.5,17.72,WSW,246,0.0,0.0,41,0.00,,---,0.00,VWS V14.00,2013-01-24 14:27:00,
2013-01-24 07:32:00,30.4,9.5,17.72,WSW,246,0.0,0.0,41,0.00,,---,0.00,VWS V14.00,2013-01-24 14:32:00,
2013-01-24 07:37:00,30.6,9.7,17.72,WSW,246,0.0,0.0,41,0.00,,---,0.00,VWS V14.00,2013-01-24 14:37:00,
2013-01-24 07:42:00,30.6,9.7,17.72,WSW,246,0.0,0.0,41,0.00,,---,0.00,VWS V14.00,2013-01-24 14:42:00,
2013-01-24 07:47:00,30.9,10.0,17.72,WSW,246,0.0,0.0,41,0.00,,---,0.00,VWS V14.00,2013-01-24 14:47:00,
2013-01-24 07:52:00,31.1,10.2,17.72,WSW,246,0.0,0.0,41,0.00,,---,0.00,VWS V14.00,2013-01-24 14:52:00,
2013-01-24 07:57:00,31.3,10.3,17.72,WSW,246,0.0,0.0,41,0.00,,---,0.00,VWS V14.00,2013-01-24 14:57:00,
2013-01-24 08:02:00,31.5,10.5,17.72,WSW,246,0.0,0.0,41,0.00,,---,0.00,VWS V14.00,2013-01-24 15:02:00,
2013-01-24 08:07:00,31.8,10.8,17.72,WSW,246,0.0,0.0,41,0.00,,---,0.00,VWS V14.00,2013-01-24 15:07:00,
2013-01-24 08:12:00,32.0,11.0,17.72,WSW,246,0.0,0.0,41,0.00,,---,0.00,VWS V14.00,2013-01-24 15:12:00,
2013-01-24 08:17:00,32.2,11.1,17.72,WSW,246,0.0,0.0,41,0.00,,---,0.00,VWS V14.00,2013-01-24 15:17:00,
2013-01-24 08:22:00,32.5,11.5,17.72,WSW,246,0.0,0.0,41,0.00,,---,0.00,VWS V14.00,2013-01-24 15:22:00,
2013-01-24 08:27:00,32.7,11.6,17.72,WSW,246,0.0,0.0,41,0.00,,---,0.00,VWS V14.00,2013-01-24 15:27:00,
2013-01-24 08:32:00,33.1,12.0,17.72,WSW,246,0.0,0.0,41,0.00,,---,0.00,VWS V14.00,2013-01-24 15:32:00,
2013-01-24 08:37:00,33.3,12.1,17.72,WSW,246,0.0,0.0,41,0.00,,---,0.00,VWS V14.00,2013-01-24 15:37:00,
2013-01-24 08:42:00,33.8,12.1,17.72,WSW,246,0.0,0.0,40,0.00,,---,0.00,VWS V14.00,2013-01-24 15:42:00,
2013-01-24 08:47:00,34.2,12.4,17.72,WSW,246,0.0,0.0,40,0.00,,---,0.00,VWS V14.00,2013-01-24 15:47:00,
2013-01-24 08:52:00,34.5,12.7,17.72,WSW,246,0.0,0.0,40,0.00,,---,0.00,VWS V14.00,2013-01-24 15:52:00,
2013-01-24 08:57:00,35.1,13.2,17.72,WSW,246,0.0,0.0,40,0.00,,---,0.00,VWS V14.00,2013-01-24 15:57:00,
2013-01-24 09:02:00,35.8,13.8,17.72,WSW,246,0.0,0.0,40,0.00,,---,0.00,VWS V14.00,2013-01-24 16:02:00,
2013-01-24 09:07:00,36.3,14.3,17.72,WSW,246,0.0,0.0,40,0.00,,---,0.00,VWS V14.00,2013-01-24 16:07:00,
2013-01-24 09:12:00,37.0,15.0,17.72,WSW,246,0.0,0.0,40,0.00,,---,0.00,VWS V14.00,2013-01-24 16:12:00,
2013-01-24 09:17:00,37.9,15.2,17.72,WSW,246,0.0,0.0,39,0.00,,---,0.00,VWS V14.00,2013-01-24 16:17:00,
2013-01-24 09:22:00,38.5,15.7,17.72,WSW,246,0.0,0.0,39,0.00,,---,0.00,VWS V14.00,2013-01-24 16:22:00,
2013-01-24 09:27:00,39.2,16.3,17.72,WSW,246,0.0,0.0,39,0.00,,---,0.00,VWS V14.00,2013-01-24 16:27:00,
2013-01-24 09:32:00,40.1,17.1,17.72,WSW,238,0.0,0.0,39,0.00,,---,0.00,VWS V14.00,2013-01-24 16:32:00,
2013-01-24 09:37:00,41.0,18.0,17.72,SW,225,2.2,4.0,39,0.00,,---,0.00,VWS V14.00,2013-01-24 16:37:00,
2013-01-24 09:42:00,42.1,18.9,17.72,SSW,202,3.6,3.6,39,0.00,,---,0.00,VWS V14.00,2013-01-24 16:42:00,
2013-01-24 09:47:00,42.8,19.0,17.72,South,171,0.0,0.0,38,0.00,,---,0.00,VWS V14.00,2013-01-24 16:47:00,
2013-01-24 09:53:00,43.3,19.5,17.72,West,259,3.6,5.8,38,0.00,,---,0.00,VWS V14.00,2013-01-24 16:53:00,
2013-01-24 09:58:00,43.9,19.9,17.72,WSW,239,4.0,5.4,38,0.00,,---,0.00,VWS V14.00,2013-01-24 16:58:00,
2013-01-24 10:03:00,44.4,20.4,17.72,West,276,2.7,7.2,38,0.00,,---,0.00,VWS V14.00,2013-01-24 17:03:00,
2013-01-24 10:08:00,45.1,21.1,17.72,SSW,203,2.7,4.9,38,0.00,,---,0.00,VWS V14.00,2013-01-24 17:08:00,
2013-01-24 10:13:00,45.7,21.5,17.72,West,259,8.7,8.7,38,0.00,,---,0.00,VWS V14.00,2013-01-24 17:13:00,
2013-01-24 10:18:00,46.0,21.9,17.72,North,6,6.7,6.7,38,0.00,,---,0.00,VWS V14.00,2013-01-24 17:18:00,
2013-01-24 10:23:00,46.2,22.0,17.72,SW,214,8.3,8.3,38,0.00,,---,0.00,VWS V14.00,2013-01-24 17:23:00,
2013-01-24 10:28:00,46.8,21.9,17.72,SW,214,8.3,8.3,37,0.00,,---,0.00,VWS V14.00,2013-01-24 17:28:00,
2013-01-24 10:33:00,47.7,22.7,17.72,WNW,301,5.4,5.4,37,0.00,,---,0.00,VWS V14.00,2013-01-24 17:33:00,
2013-01-24 10:38:00,48.7,23.6,17.72,SW,229,7.6,10.5,37,0.00,,---,0.00,VWS V14.00,2013-01-24 17:38:00,
2013-01-24 10:43:00,49.3,24.1,17.72,West,277,3.6,3.6,37,0.00,,---,0.00,VWS V14.00,2013-01-24 17:43:00,
2013-01-24 10:48:00,49.6,24.5,17.72,SW,223,2.2,4.0,37,0.00,,---,0.00,VWS V14.00,2013-01-24 17:48:00,
2013-01-24 10:53:00,50.0,24.8,17.72,SW,230,2.2,3.1,37,0.00,,---,0.00,VWS V14.00,2013-01-24 17:53:00,
2013-01-24 10:58:00,50.2,24.9,17.72,SSW,195,4.9,6.3,37,0.00,,---,0.00,VWS V14.00,2013-01-24 17:58:00,
2013-01-24 11:03:00,50.4,25.1,17.72,SSW,206,3.1,4.9,37,0.00,,---,0.00,VWS V14.00,2013-01-24 18:03:00,
2013-01-24 11:08:00,50.7,25.4,17.72,SW,233,2.7,4.9,37,0.00,,---,0.00,VWS V14.00,2013-01-24 18:08:00,
2013-01-24 11:13:00,51.1,25.7,17.72,SW,223,15.4,15.4,37,0.00,,---,0.00,VWS V14.00,2013-01-24 18:13:00,
2013-01-24 11:18:00,51.3,25.9,17.72,SW,219,4.0,7.6,37,0.00,,---,0.00,VWS V14.00,2013-01-24 18:18:00,
2013-01-24 11:23:00,51.3,25.9,17.72,WSW,256,3.1,3.1,37,0.00,,---,0.00,VWS V14.00,2013-01-24 18:23:00,
2013-01-24 11:28:00,51.1,25.7,17.72,WNW,297,4.0,6.3,37,0.00,,---,0.00,VWS V14.00,2013-01-24 18:28:00,
2013-01-24 11:33:00,50.9,25.6,17.72,South,172,3.1,3.6,37,0.00,,---,0.00,VWS V14.00,2013-01-24 18:33:00,
2013-01-24 11:38:00,50.7,25.4,17.72,South,182,4.0,4.0,37,0.00,,---,0.00,VWS V14.00,2013-01-24 18:38:00,
2013-01-24 11:43:00,50.4,25.1,17.72,West,267,2.7,2.7,37,0.00,,---,0.00,VWS V14.00,2013-01-24 18:43:00,
2013-01-24 11:48:00,49.8,24.6,17.72,WNW,284,2.7,3.1,37,0.00,,---,0.00,VWS V14.00,2013-01-24 18:48:00,
2013-01-24 11:54:00,49.1,24.0,17.72,WSW,257,3.1,7.2,37,0.00,,---,0.00,VWS V14.00,2013-01-24 18:54:00,
2013-01-24 11:59:00,48.7,23.6,17.72,South,191,5.4,6.3,37,0.00,,---,0.00,VWS V14.00,2013-01-24 18:59:00,
2013-01-24 12:04:00,48.0,23.0,17.72,SSE,155,2.7,4.9,37,0.00,,---,0.00,VWS V14.00,2013-01-24 19:04:00,
2013-01-24 12:09:00,47.5,22.5,17.72,SSW,210,5.8,5.8,37,0.00,,---,0.00,VWS V14.00,2013-01-24 19:09:00,
2013-01-24 12:14:00,47.3,22.4,17.72,SSW,197,2.2,3.6,37,0.00,,---,0.00,VWS V14.00,2013-01-24 19:14:00,
2013-01-24 12:19:00,46.9,22.0,17.72,SSW,196,0.0,2.2,37,0.00,,---,0.00,VWS V14.00,2013-01-24 19:19:00,
2013-01-24 12:24:00,46.9,22.0,17.72,SSW,200,0.0,2.2,37,0.00,,---,0.00,VWS V14.00,2013-01-24 19:24:00,
2013-01-24 12:29:00,46.8,21.9,17.72,SSW,193,0.0,0.0,37,0.00,,---,0.00,VWS V14.00,2013-01-24 19:29:00,
2013-01-24 12:34:00,46.8,21.9,17.72,SW,227,3.6,3.6,37,0.00,,---,0.00,VWS V14.00,2013-01-24 19:34:00,
2013-01-24 12:39:00,46.4,21.6,17.72,SW,229,0.0,0.0,37,0.00,,---,0.00,VWS V14.00,2013-01-24 19:39:00,
2013-01-24 12:44:00,45.9,21.7,17.72,SW,233,3.6,4.0,38,0.00,,---,0.00,VWS V14.00,2013-01-24 19:44:00,
2013-01-24 12:49:00,45.5,21.4,17.72,WSW,243,3.6,3.6,38,0.00,,---,0.00,VWS V14.00,2013-01-24 19:49:00,
2013-01-24 12:54:00,45.1,21.1,17.72,West,274,3.6,3.6,38,0.00,,---,0.00,VWS V14.00,2013-01-24 19:54:00,
2013-01-24 12:59:00,44.6,20.6,17.72,SW,217,3.1,3.1,38,0.00,,---,0.00,VWS V14.00,2013-01-24 19:59:00,
2013-01-24 13:04:00,44.4,20.4,17.72,SW,229,2.2,3.1,38,0.00,,---,0.00,VWS V14.00,2013-01-24 20:04:00,
2013-01-24 13:09:00,44.2,20.3,17.72,SW,234,4.0,4.9,38,0.00,,---,0.00,VWS V14.00,2013-01-24 20:09:00,
2013-01-24 13:14:00,44.4,20.4,17.72,SW,225,0.0,0.0,38,0.00,,---,0.00,VWS V14.00,2013-01-24 20:14:00,
2013-01-24 13:19:00,44.4,20.4,17.72,West,263,2.7,2.7,38,0.00,,---,0.00,VWS V14.00,2013-01-24 20:19:00,
2013-01-24 13:24:00,44.2,20.3,17.72,SW,214,2.7,3.1,38,0.00,,---,0.00,VWS V14.00,2013-01-24 20:24:00,
2013-01-24 13:29:00,44.2,20.3,17.72,WSW,252,0.0,0.0,38,0.00,,---,0.00,VWS V14.00,2013-01-24 20:29:00,
2013-01-24 13:34:00,44.1,20.1,17.72,West,267,2.7,5.4,38,0.00,,---,0.00,VWS V14.00,2013-01-24 20:34:00,
2013-01-24 13:40:00,43.7,19.8,17.72,WSW,245,2.7,7.6,38,0.00,,---,0.00,VWS V14.00,2013-01-24 20:40:00,
2013-01-24 13:45:00,43.3,19.5,17.72,West,260,2.7,2.7,38,0.00,,---,0.00,VWS V14.00,2013-01-24 20:45:00,
2013-01-24 13:50:00,43.0,19.1,17.72,West,266,3.1,3.1,38,0.00,,---,0.00,VWS V14.00,2013-01-24 20:50:00,
2013-01-24 13:55:00,42.8,19.0,17.72,West,280,0.0,0.0,38,0.00,,---,0.00,VWS V14.00,2013-01-24 20:55:00,
2013-01-24 14:00:00,42.3,19.1,17.72,SW,226,3.1,4.0,39,0.00,,---,0.00,VWS V14.00,2013-01-24 21:00:00,
2013-01-24 14:05:00,41.9,18.8,17.72,West,277,2.2,5.8,39,0.00,,---,0.00,VWS V14.00,2013-01-24 21:05:00,
2013-01-24 14:10:00,41.5,18.4,17.72,West,264,2.7,2.7,39,0.00,,---,0.00,VWS V14.00,2013-01-24 21:10:00,
2013-01-24 14:15:00,41.2,18.1,17.72,West,260,3.1,3.1,39,0.00,,---,0.00,VWS V14.00,2013-01-24 21:15:00,
2013-01-24 14:20:00,41.2,18.1,17.72,West,280,2.2,5.4,39,0.00,,---,0.00,VWS V14.00,2013-01-24 21:20:00,
2013-01-24 14:25:00,41.2,18.1,17.72,NW,316,0.0,0.0,39,0.00,,---,0.00,VWS V14.00,2013-01-24 21:25:00,
2013-01-24 14:30:00,41.2,18.1,17.72,WSW,247,2.2,2.7,39,0.00,,---,0.00,VWS V14.00,2013-01-24 21:30:00,
2013-01-24 14:35:00,41.2,18.1,17.72,NW,326,0.0,0.0,39,0.00,,---,0.00,VWS V14.00,2013-01-24 21:35:00,
2013-01-24 14:40:00,41.2,18.1,17.72,West,275,0.0,0.0,39,0.00,,---,0.00,VWS V14.00,2013-01-24 21:40:00,
2013-01-24 14:45:00,41.0,18.0,17.72,WSW,250,2.7,2.7,39,0.00,,---,0.00,VWS V14.00,2013-01-24 21:45:00,
2013-01-24 14:50:00,40.8,18.4,17.72,WNW,288,0.0,2.7,40,0.00,,---,0.00,VWS V14.00,2013-01-24 21:50:00,
2013-01-24 14:55:00,40.6,18.2,17.72,NW,306,0.0,0.0,40,0.00,,---,0.00,VWS V14.00,2013-01-24 21:55:00,
2013-01-24 15:00:00,40.6,18.2,17.72,NW,326,2.7,2.7,40,0.00,,---,0.00,VWS V14.00,2013-01-24 22:00:00,
2013-01-24 15:05:00,40.6,18.2,17.72,WNW,301,2.2,3.1,40,0.00,,---,0.00,VWS V14.00,2013-01-24 22:05:00,
2013-01-24 15:11:00,40.6,18.2,17.72,WSW,252,2.7,5.4,40,0.00,,---,0.00,VWS V14.00,2013-01-24 22:11:00,
2013-01-24 15:16:00,40.6,18.2,17.72,West,278,3.6,4.0,40,0.00,,---,0.00,VWS V14.00,2013-01-24 22:16:00,
2013-01-24 15:21:00,40.8,18.4,17.72,West,274,0.0,0.0,40,0.00,,---,0.00,VWS V14.00,2013-01-24 22:21:00,
2013-01-24 15:26:00,40.8,18.4,17.72,SW,228,2.7,3.1,40,0.00,,---,0.00,VWS V14.00,2013-01-24 22:26:00,
2013-01-24 15:31:00,40.6,18.2,17.72,WNW,300,4.0,4.0,40,0.00,,---,0.00,VWS V14.00,2013-01-24 22:31:00,
2013-01-24 15:36:00,40.5,18.1,17.72,West,259,0.0,0.0,40,0.00,,---,0.00,VWS V14.00,2013-01-24 22:36:00,
2013-01-24 15:41:00,40.5,18.1,17.72,SSW,212,0.0,0.0,40,0.00,,---,0.00,VWS V14.00,2013-01-24 22:41:00,
2013-01-24 15:46:00,40.3,17.9,17.72,SW,230,0.0,0.0,40,0.00,,---,0.00,VWS V14.00,2013-01-24 22:46:00,
2013-01-24 15:51:00,40.1,17.7,17.72,SSW,213,0.0,0.0,40,0.00,,---,0.00,VWS V14.00,2013-01-24 22:51:00,
2013-01-24 15:56:00,39.9,17.6,17.72,WSW,253,2.2,2.2,40,0.00,,---,0.00,VWS V14.00,2013-01-24 22:56:00,
2013-01-24 16:01:00,39.7,17.4,17.72,West,259,0.0,0.0,40,0.00,,---,0.00,VWS V14.00,2013-01-24 23:01:00,
2013-01-24 16:06:00,39.6,17.2,17.72,WSW,238,0.0,0.0,40,0.00,,---,0.00,VWS V14.00,2013-01-24 23:06:00,
2013-01-24 16:11:00,39.4,17.1,17.72,WSW,239,0.0,0.0,40,0.00,,---,0.00,VWS V14.00,2013-01-24 23:11:00,
2013-01-24 16:16:00,39.2,16.9,17.72,WSW,239,0.0,0.0,40,0.00,,---,0.00,VWS V14.00,2013-01-24 23:16:00,
2013-01-24 16:21:00,39.2,16.9,17.72,WSW,238,0.0,0.0,40,0.00,,---,0.00,VWS V14.00,2013-01-24 23:21:00,
2013-01-24 16:26:00,39.2,16.9,17.72,WSW,238,0.0,0.0,40,0.00,,---,0.00,VWS V14.00,2013-01-24 23:26:00,
2013-01-24 16:31:00,39.0,17.3,17.72,WSW,240,0.0,0.0,41,0.00,,---,0.00,VWS V14.00,2013-01-24 23:31:00,
2013-01-24 16:36:00,39.0,17.3,17.72,SW,222,0.0,0.0,41,0.00,,---,0.00,VWS V14.00,2013-01-24 23:36:00,
2013-01-24 16:41:00,39.2,17.5,17.72,WNW,294,0.0,0.0,41,0.00,,---,0.00,VWS V14.00,2013-01-24 23:41:00,
2013-01-24 16:46:00,39.2,17.5,17.72,West,267,0.0,0.0,41,0.00,,---,0.00,VWS V14.00,2013-01-24 23:46:00,
2013-01-24 16:52:00,39.0,17.3,17.72,WSW,248,0.0,0.0,41,0.00,,---,0.00,VWS V14.00,2013-01-24 23:52:00,
2013-01-24 16:57:00,39.0,17.3,17.72,West,278,0.0,0.0,41,0.00,,---,0.00,VWS V14.00,2013-01-24 23:57:00,
2013-01-24 17:02:00,38.8,17.2,17.72,West,265,0.0,4.0,41,0.00,,---,0.00,VWS V14.00,2013-01-25 00:02:00,
2013-01-24 17:07:00,38.8,17.2,17.72,WNW,294,3.6,3.6,41,0.00,,---,0.00,VWS V14.00,2013-01-25 00:07:00,
2013-01-24 17:12:00,38.7,17.0,17.72,West,267,0.0,3.6,41,0.00,,---,0.00,VWS V14.00,2013-01-25 00:12:00,
2013-01-24 17:17:00,38.7,17.0,17.72,SW,235,0.0,0.0,41,0.00,,---,0.00,VWS V14.00,2013-01-25 00:17:00,
2013-01-24 17:22:00,38.7,17.0,17.72,West,265,2.2,2.2,41,0.00,,---,0.00,VWS V14.00,2013-01-25 00:22:00,
2013-01-24 17:27:00,38.5,16.8,17.72,WNW,295,0.0,0.0,41,0.00,,---,0.00,VWS V14.00,2013-01-25 00:27:00,
2013-01-24 17:32:00,38.3,16.7,17.72,WNW,295,0.0,0.0,41,0.00,,---,0.00,VWS V14.00,2013-01-25 00:32:00,
2013-01-24 17:37:00,38.3,17.2,17.72,WNW,296,0.0,0.0,42,0.00,,---,0.00,VWS V14.00,2013-01-25 00:37:00,
2013-01-24 17:42:00,38.3,17.2,17.72,WNW,296,0.0,0.0,42,0.00,,---,0.00,VWS V14.00,2013-01-25 00:42:00,
2013-01-24 17:47:00,38.1,17.1,17.72,WNW,296,0.0,0.0,42,0.00,,---,0.00,VWS V14.00,2013-01-25 00:47:00,
2013-01-24 17:52:00,38.1,17.1,17.72,NW,310,0.0,0.0,42,0.00,,---,0.00,VWS V14.00,2013-01-25 00:52:00,
2013-01-24 17:57:00,37.9,16.9,17.72,NW,310,0.0,0.0,42,0.00,,---,0.00,VWS V14.00,2013-01-25 00:57:00,
2013-01-24 18:02:00,37.9,16.9,17.72,NW,310,0.0,0.0,42,0.00,,---,0.00,VWS V14.00,2013-01-25 01:02:00,
2013-01-24 18:07:00,37.9,16.9,17.72,NW,310,0.0,0.0,42,0.00,,---,0.00,VWS V14.00,2013-01-25 01:07:00,
2013-01-24 18:12:00,37.9,16.9,17.72,NW,310,0.0,0.0,42,0.00,,---,0.00,VWS V14.00,2013-01-25 01:12:00,
2013-01-24 18:17:00,37.9,16.9,17.72,NW,309,0.0,0.0,42,0.00,,---,0.00,VWS V14.00,2013-01-25 01:17:00,
2013-01-24 18:22:00,37.9,16.9,17.72,NW,306,0.0,0.0,42,0.00,,---,0.00,VWS V14.00,2013-01-25 01:22:00,
2013-01-24 18:28:00,37.9,16.9,17.72,NW,306,0.0,0.0,42,0.00,,---,0.00,VWS V14.00,2013-01-25 01:28:00,
2013-01-24 18:33:00,37.9,16.9,17.72,NW,306,0.0,0.0,42,0.00,,---,0.00,VWS V14.00,2013-01-25 01:33:00,
2013-01-24 18:38:00,37.8,16.8,17.72,NW,306,0.0,0.0,42,0.00,,---,0.00,VWS V14.00,2013-01-25 01:38:00,
2013-01-24 18:43:00,37.8,16.8,17.72,NW,306,0.0,0.0,42,0.00,,---,0.00,VWS V14.00,2013-01-25 01:43:00,
2013-01-24 18:48:00,37.6,16.6,17.72,NW,306,0.0,0.0,42,0.00,,---,0.00,VWS V14.00,2013-01-25 01:48:00,
2013-01-24 18:53:00,37.6,16.6,17.72,NW,306,0.0,0.0,42,0.00,,---,0.00,VWS V14.00,2013-01-25 01:53:00,
2013-01-24 18:58:00,37.4,16.4,17.72,NW,306,0.0,0.0,42,0.00,,---,0.00,VWS V14.00,2013-01-25 01:58:00,
2013-01-24 19:03:00,37.4,16.4,17.72,NW,306,0.0,0.0,42,0.00,,---,0.00,VWS V14.00,2013-01-25 02:03:00,
2013-01-24 19:09:00,37.4,16.4,17.72,NW,306,0.0,0.0,42,0.00,,---,0.00,VWS V14.00,2013-01-25 02:09:00,
2013-01-24 19:14:00,37.4,17.0,17.72,NW,306,0.0,0.0,43,0.00,,---,0.00,VWS V14.00,2013-01-25 02:14:00,
2013-01-24 19:19:00,37.4,17.0,17.72,NW,306,0.0,0.0,43,0.00,,---,0.00,VWS V14.00,2013-01-25 02:19:00,
2013-01-24 19:24:00,37.4,17.0,17.72,NW,306,0.0,0.0,43,0.00,,---,0.00,VWS V14.00,2013-01-25 02:24:00,
2013-01-24 19:29:00,37.4,17.0,17.72,NW,306,0.0,0.0,43,0.00,,---,0.00,VWS V14.00,2013-01-25 02:29:00,
2013-01-24 19:34:00,37.2,16.8,17.72,NW,306,0.0,0.0,43,0.00,,---,0.00,VWS V14.00,2013-01-25 02:34:00,
2013-01-24 19:39:00,37.2,16.8,17.72,NW,306,0.0,0.0,43,0.00,,---,0.00,VWS V14.00,2013-01-25 02:39:00,
2013-01-24 19:44:00,37.2,16.8,17.72,NW,306,0.0,0.0,43,0.00,,---,0.00,VWS V14.00,2013-01-25 02:44:00,
2013-01-24 19:49:00,37.0,16.6,17.72,NW,306,0.0,0.0,43,0.00,,---,0.00,VWS V14.00,2013-01-25 02:49:00,
2013-01-24 19:54:00,37.0,16.6,17.72,NW,306,0.0,0.0,43,0.00,,---,0.00,VWS V14.00,2013-01-25 02:54:00,
2013-01-24 19:59:00,37.0,16.6,17.72,NW,306,0.0,0.0,43,0.00,,---,0.00,VWS V14.00,2013-01-25 02:59:00,
2013-01-24 20:04:00,37.0,16.6,17.72,NW,306,0.0,0.0,43,0.00,,---,0.00,VWS V14.00,2013-01-25 03:04:00,
2013-01-24 20:09:00,37.0,16.6,17.72,NW,306,0.0,0.0,43,0.00,,---,0.00,VWS V14.00,2013-01-25 03:09:00,
2013-01-24 20:14:00,36.9,16.5,17.72,NW,306,0.0,0.0,43,0.00,,---,0.00,VWS V14.00,2013-01-25 03:14:00,
2013-01-24 20:19:00,36.9,16.5,17.72,NW,306,0.0,0.0,43,0.00,,---,0.00,VWS V14.00,2013-01-25 03:19:00,
2013-01-24 20:24:00,36.9,17.0,17.72,NW,306,0.0,0.0,44,0.00,,---,0.00,VWS V14.00,2013-01-25 03:24:00,
2013-01-24 20:29:00,36.9,17.0,17.72,NW,306,0.0,0.0,44,0.00,,---,0.00,VWS V14.00,2013-01-25 03:29:00,
2013-01-24 20:34:00,36.9,17.0,17.72,NW,306,0.0,0.0,44,0.00,,---,0.00,VWS V14.00,2013-01-25 03:34:00,
2013-01-24 20:39:00,37.0,17.2,17.72,NW,306,0.0,0.0,44,0.00,,---,0.00,VWS V14.00,2013-01-25 03:39:00,
2013-01-24 20:44:00,37.0,17.2,17.72,NW,306,0.0,0.0,44,0.00,,---,0.00,VWS V14.00,2013-01-25 03:44:00,
2013-01-24 20:50:00,37.2,17.3,17.72,NW,306,0.0,0.0,44,0.00,,---,0.00,VWS V14.00,2013-01-25 03:50:00,
2013-01-24 20:55:00,37.2,17.3,17.72,NW,306,0.0,0.0,44,0.00,,---,0.00,VWS V14.00,2013-01-25 03:55:00,
2013-01-24 21:00:00,37.2,17.3,17.72,NW,306,0.0,0.0,44,0.00,,---,0.00,VWS V14.00,2013-01-25 04:00:00,
2013-01-24 21:05:00,37.4,17.5,17.72,NW,306,0.0,0.0,44,0.00,,---,0.00,VWS V14.00,2013-01-25 04:05:00,
2013-01-24 21:10:00,37.4,17.5,17.72,NW,306,0.0,0.0,44,0.00,,---,0.00,VWS V14.00,2013-01-25 04:10:00,
2013-01-24 21:15:00,37.4,17.5,17.72,NW,306,0.0,0.0,44,0.00,,---,0.00,VWS V14.00,2013-01-25 04:15:00,
2013-01-24 21:20:00,37.4,17.5,17.72,NW,306,0.0,0.0,44,0.00,,---,0.00,VWS V14.00,2013-01-25 04:20:00,
2013-01-24 21:25:00,37.2,17.3,17.72,NW,306,0.0,0.0,44,0.00,,---,0.00,VWS V14.00,2013-01-25 04:25:00,
2013-01-24 21:30:00,37.0,17.2,17.72,NW,306,0.0,0.0,44,0.00,,---,0.00,VWS V14.00,2013-01-25 04:30:00,
2013-01-24 21:35:00,37.2,17.3,17.72,NW,306,0.0,0.0,44,0.00,,---,0.00,VWS V14.00,2013-01-25 04:35:00,
2013-01-24 21:40:00,37.2,17.3,17.72,NW,306,0.0,0.0,44,0.00,,---,0.00,VWS V14.00,2013-01-25 04:40:00,
2013-01-24 21:45:00,37.0,17.2,17.72,NW,306,0.0,0.0,44,0.00,,---,0.00,VWS V14.00,2013-01-25 04:45:00,
2013-01-24 21:50:00,37.0,17.2,17.72,NW,306,0.0,0.0,44,0.00,,---,0.00,VWS V14.00,2013-01-25 04:50:00,
2013-01-24 21:55:00,37.0,17.2,17.72,NW,306,0.0,0.0,44,0.00,,---,0.00,VWS V14.00,2013-01-25 04:55:00,
2013-01-24 22:00:00,37.0,17.7,17.72,NW,306,0.0,0.0,45,0.00,,---,0.00,VWS V14.00,2013-01-25 05:00:00,
2013-01-24 22:01:00,37.0,17.7,17.72,NW,306,0.0,0.0,45,0.00,,---,0.00,VWS V14.00,2013-01-25 05:01:00,
2013-01-24 22:02:00,37.2,17.9,17.72,NW,306,0.0,0.0,45,0.00,,---,0.00,VWS V14.00,2013-01-25 05:02:00,
2013-01-24 22:03:00,37.2,17.9,17.72,NW,306,0.0,0.0,45,0.00,,---,0.00,VWS V14.00,2013-01-25 05:03:00,
2013-01-24 22:08:00,37.4,18.0,17.72,NW,305,0.0,0.0,45,0.00,,---,0.00,VWS V14.00,2013-01-25 05:08:00,
2013-01-24 22:13:00,37.6,18.2,17.72,NW,305,0.0,0.0,45,0.00,,---,0.00,VWS V14.00,2013-01-25 05:13:00,
2013-01-24 22:18:00,37.6,18.2,17.72,NW,305,0.0,0.0,45,0.00,,---,0.00,VWS V14.00,2013-01-25 05:18:00,
2013-01-24 22:23:00,37.4,17.5,17.72,NW,305,0.0,0.0,44,0.00,,---,0.00,VWS V14.00,2013-01-25 05:23:00,
2013-01-24 22:28:00,37.2,17.9,17.72,NW,305,0.0,0.0,45,0.00,,---,0.00,VWS V14.00,2013-01-25 05:28:00,
2013-01-24 22:33:00,37.0,17.7,17.72,NW,305,0.0,0.0,45,0.00,,---,0.00,VWS V14.00,2013-01-25 05:33:00,
2013-01-24 22:38:00,36.9,17.5,17.72,NW,305,0.0,0.0,45,0.00,,---,0.00,VWS V14.00,2013-01-25 05:38:00,
2013-01-24 22:43:00,36.9,17.5,17.72,NW,305,0.0,0.0,45,0.00,,---,0.00,VWS V14.00,2013-01-25 05:43:00,
2013-01-24 22:48:00,36.7,17.4,17.72,NW,305,0.0,0.0,45,0.00,,---,0.00,VWS V14.00,2013-01-25 05:48:00,
2013-01-24 22:53:00,36.7,17.4,17.72,NW,305,0.0,0.0,45,0.00,,---,0.00,VWS V14.00,2013-01-25 05:53:00,
2013-01-24 22:58:00,36.7,17.4,17.72,NW,305,0.0,0.0,45,0.00,,---,0.00,VWS V14.00,2013-01-25 05:58:00,
2013-01-24 23:03:00,36.7,17.4,17.72,NW,305,0.0,0.0,45,0.00,,---,0.00,VWS V14.00,2013-01-25 06:03:00,
2013-01-24 23:09:00,36.7,17.4,17.72,NW,305,0.0,0.0,45,0.00,,---,0.00,VWS V14.00,2013-01-25 06:09:00,
2013-01-24 23:14:00,36.7,17.4,17.72,NW,305,0.0,0.0,45,0.00,,---,0.00,VWS V14.00,2013-01-25 06:14:00,
2013-01-24 23:19:00,36.5,17.2,17.72,NW,305,0.0,0.0,45,0.00,,---,0.00,VWS V14.00,2013-01-25 06:19:00,
2013-01-24 23:24:00,36.5,17.2,17.72,NW,305,0.0,0.0,45,0.00,,---,0.00,VWS V14.00,2013-01-25 06:24:00,
2013-01-24 23:29:00,36.5,17.2,17.72,NW,305,0.0,0.0,45,0.00,,---,0.00,VWS V14.00,2013-01-25 06:29:00,
2013-01-24 23:34:00,36.5,17.2,17.72,NW,305,0.0,0.0,45,0.00,,---,0.00,VWS V14.00,2013-01-25 06:34:00,
2013-01-24 23:39:00,36.5,17.2,17.72,NW,305,0.0,0.0,45,0.00,,---,0.00,VWS V14.00,2013-01-25 06:39:00,
2013-01-24 23:44:00,36.5,17.2,17.72,NW,305,0.0,0.0,45,0.00,,---,0.00,VWS V14.00,2013-01-25 06:44:00,
2013-01-24 23:49:00,36.3,17.0,17.72,NW,305,0.0,0.0,45,0.00,,---,0.00,VWS V14.00,2013-01-25 06:49:00,
2013-01-24 23:54:00,36.3,17.0,17.72,NW,305,0.0,0.0,45,0.00,,---,0.00,VWS V14.00,2013-01-25 06:54:00,
2013-01-24 23:59:00,36.3,17.0,17.72,NW,305,0.0,0.0,45,0.00,,---,0.00,VWS V14.00,2013-01-25 06:59:00,